User: anonymous   Login
Location: Unspecified
(0.0000°N, 0.0000°E)
Time: 03:13:43
(UTC+00:00)
Language:

KORONAS-FOTON - Orbit

View from above orbital plane
View from above orbital plane
View from above satellite
View from above satellite

Ground track
Ground track

The orbit data is extracted from the following two-line orbital elements,

1 33504U 09003A   16273.28680213  .00001467  00000-0  77789-4 0  9996
2 33504  82.4420 132.1866 0018182 293.4768  66.4552 15.14484635421986
Epoch (UTC): 29 September 2016 06:52:59
Eccentricity: 0.0018182
inclination: 82.4420°
perigee height: 510 km
apogee height: 535 km
right ascension of ascending node: 132.1866°
argument of perigee: 293.4768°
revolutions per day: 15.14484635
mean anomaly at epoch: 66.4552°
orbit number at epoch: 42198

The dashed part of the orbit path shows where the satellite is in the earth's shadow,  

DLR